User: anonymous   Login
Location: Unspecified
(0.0000°N, 0.0000°E)
Time: 22:46:20
(UTC+00:00)
Language:

EDUSAT - Orbit

View from above orbital plane
View from above orbital plane
View from above satellite
View from above satellite

Ground track
Ground track

The orbit data is extracted from the following two-line orbital elements,

1 37788U 11044A   17113.93333608 +.00000292 +00000-0 +56168-4 0  9994
2 37788 098.2416 232.2454 0036961 258.8477 218.6894 14.70679338304916
Epoch (UTC): 23 April 2017 22:24:00
Eccentricity: 0.0036961
inclination: 98.2416°
perigee height: 633 km
apogee height: 685 km
right ascension of ascending node: 232.2454°
argument of perigee: 258.8477°
revolutions per day: 14.70679338
mean anomaly at epoch: 218.6894°
orbit number at epoch: 30491

The dashed part of the orbit path shows where the satellite is in the earth's shadow,  

DLR